NOAA 16 DEB, 41277

Orbit data source: Space-Track

NOAA 16 DEB, 41277 is space debris in SSO originally from a launch on Thu, 21 Sep 2000 UTC launched from the Air Force Western Test Range (AFWTR). Debris objects in space refer to the collection of defunct objects orbiting the Earth. Examples of debris include non-operational satellites, rocket bodies, and fragments generated from explosions, collisions, or faulty payload assembly.

Loading next visibility...
Identifier
41277, 2000-055GD
Orbit
SSO
Last TLE update
20 hours ago
Origin
Manufacturer
Unknown
Mission
Spacecraft
Bus & Motor
Unknown
Mass
Unknown
Launch date (UTC)
2000-09-21 (25 years ago)
Launch vehicle
Unknown
Launch site
Air Force Western Test Range (AFWTR)
Object type
Payload
Rocket body
Debris
Shape & HBR
Unknown
Radar Cross Section
Small (<0.1 m²)

Expand to show TLE details & history

TLE from 20 hours ago
0 NOAA 16 DEB
1 41277U 00055GD  25189.47467112  .00004654  00000-0  12793-2 0  9991
2 41277  98.9899  11.5918 0036117  77.9171 282.6063 14.47109564496669
Epoch: 2025-07-08T11:23Z
TLE epoch observation values (Epoch: 2025-07-08T11:23:31.584Z)
Latitude
-0.00004°
Longitude
-85.95893°
Altitude
732.527 km
Speed
7.492 km/s
True Right ascension
00h 46m 22s
True Declination
0° 00' 00"
Sunlit
Object was in daylight at epoch
Visualization orbit readout
Latitude
71.17136°
Longitude
-112.54559°
Altitude
721.644 km
Speed
7.515 km/s
Apparent Right ascension
06h 00m 15s
Apparent Declination
34° 51' 43"
Sunlit
Object is in daylight
Visualization observer readout
Local Sidereal Time
19:47:58
Azimuth
22.263° NNE
Elevation
-11.204°
Doppler factor
1
Orbital elements
Apogee altitude
757.921 km
Perigee altitude
706.56 km
Semi-major axis
7,110.378 km
Eccentricity
0.00361
Inclination
98.9899°
RAAN
11.5918°
Arg. of periapsis
77.9171°
True anomaly
Unknown
Mean anomaly
282.6063°
Eccentric anomaly
Unknown
Mean motion
3.61996 °/min
Orbital period
99.45 mins
BSTAR
0.0012793
Loading maneuver chart data...
Loading SW <> Apogee altitude chart data...
Loading historical data...
Loading historical data...
Loading historical data...
Loading historical data...
Loading historical data...
Loading historical data...
Loading historical data...

NOAA 16 DEB Visibility forecast

Observer location: undefined°, undefined°

Span
Click to sort rows by Start time (UTC) header in descending order
Start Az.
Max El. time (UTC)
Max El. Az.
Max El.
End time (UTC)
End Az.
5 mins2025-07-09 10:47:26.667Z96.294° ESE2025-07-09 10:50:26.667Z56.934° ENE14.66°2025-07-09 10:52:26.667Z30.924° NE
8 mins2025-07-09 12:24:26.667Z182.146° SSW2025-07-09 12:27:26.667Z230.748° WSW39.742°2025-07-09 12:32:26.667Z337.822° N
7 mins2025-07-10 00:29:26.667Z39.108° NE2025-07-10 00:32:26.667Z91.237° ESE30.689°2025-07-10 00:36:26.667Z161.741° S
6 mins2025-07-10 02:08:26.667Z332.903° NNW2025-07-10 02:10:26.667Z301.256° NW21.719°2025-07-10 02:14:26.667Z243.524° WSW
|